,,,PA_Meas_PMT16A,,PR_Meas_QMR101_102,,RH_Meas_QMH101,,SR_Meas_QMS101,,TA_Meas_QMH101,,GenWind,,GenWind,
date,time,status,PA,status,PR,status,RH,status,SR,status,TA,status,DirAvg,status,SpdAvg,
2009-05-04, 00:00:04,VALID,1009.86,VALID,0,VALID,79.1096,VALID,0.105969,VALID,24.5106,VALID,68,VALID,0,
2009-05-04, 00:01:04,VALID,1009.82,VALID,0,VALID,79.1019,VALID,0.105969,VALID,24.4911,VALID,68,VALID,0,
2009-05-04, 00:02:04,VALID,1009.8,VALID,0,VALID,79.1019,VALID,0.105969,VALID,24.4911,VALID,68,VALID,0,
2009-05-04, 00:03:04,VALID,1009.78,VALID,0,VALID,79.0943,VALID,0,VALID,24.4911,VALID,68,VALID,0,
2009-05-04, 00:04:04,VALID,1009.79,VALID,0,VALID,79.1096,VALID,0.105969,VALID,24.4911,VALID,68,VALID,0,
2009-05-04, 00:05:04,VALID,1009.76,VALID,0,VALID,79.1019,VALID,0.105969,VALID,24.5106,VALID,68,VALID,0,
2009-05-04, 00:06:04,VALID,1009.76,VALID,0,VALID,79.1019,VALID,0,VALID,24.4911,VALID,68,VALID,0,
2009-05-04, 00:07:04,VALID,1009.76,VALID,0,VALID,79.0943,VALID,0.105969,VALID,24.5106,VALID,68,VALID,0,
2009-05-04, 00:08:04,VALID,1009.75,VALID,0,VALID,79.0943,VALID,0.105969,VALID,24.5301,VALID,68,VALID,0,
2009-05-04, 00:09:04,VALID,1009.76,VALID,0,VALID,79.0943,VALID,0,VALID,24.5088,VALID,68,VALID,0,
2009-05-04, 00:10:04,VALID,1009.77,VALID,0,VALID,79.0943,VALID,0.105969,VALID,24.5496,VALID,68,VALID,0,
2009-05-04, 00:11:04,VALID,1009.77,VALID,0,VALID,79.0943,VALID,0.105969,VALID,24.5478,VALID,68,VALID,0,
2009-05-04, 00:12:04,VALID,1009.74,VALID,0,VALID,79.1019,VALID,0.105969,VALID,24.5496,VALID,68,VALID,0,
2009-05-04, 00:13:04,VALID,1009.72,VALID,0,VALID,79.1172,VALID,0.105969,VALID,24.4911,VALID,68,VALID,0,
2009-05-04, 00:14:04,VALID,1009.73,VALID,0,VALID,79.1324,VALID,0.105969,VALID,24.4717,VALID,68,VALID,0,
2009-05-04, 00:15:04,VALID,1009.74,VALID,0,VALID,79.1324,VALID,0.105969,VALID,24.4132,VALID,68,VALID,0,
2009-05-04, 00:16:04,VALID,1009.73,VALID,0,VALID,79.1477,VALID,0,VALID,24.454,VALID,68,VALID,0,
2009-05-04, 00:17:04,VALID,1009.76,VALID,0,VALID,79.1401,VALID,0.105969,VALID,24.4327,VALID,68,VALID,0,
2009-05-04, 00:18:04,VALID,1009.73,VALID,0,VALID,79.1172,VALID,0,VALID,24.4327,VALID,68,VALID,0,
2009-05-04, 00:19:04,VALID,1009.72,VALID,0,VALID,79.1248,VALID,0,VALID,24.4327,VALID,68,VALID,0,
2009-05-04, 00:20:04,VALID,1009.73,VALID,0,VALID,79.1629,VALID,0.105969,VALID,24.4132,VALID,68,VALID,0,
2009-05-04, 00:21:04,VALID,1009.73,VALID,0,VALID,79.1553,VALID,0,VALID,24.3937,VALID,68,VALID,0,
2009-05-04, 00:22:04,VALID,1009.72,VALID,0,VALID,79.1629,VALID,0,VALID,24.3937,VALID,68,VALID,0,
2009-05-04, 00:23:04,VALID,1009.77,VALID,0,VALID,79.1782,VALID,0.105969,VALID,24.3742,VALID,67,VALID,0,
2009-05-04, 00:24:04,VALID,1009.76,VALID,0,VALID,79.1935,VALID,0,VALID,24.3547,VALID,68,VALID,0,
2009-05-04, 00:25:04,VALID,1009.75,VALID,0,VALID,79.1706,VALID,0.105969,VALID,24.3352,VALID,68,VALID,0,
2009-05-04, 00:26:04,VALID,1009.74,VALID,0,VALID,79.2011,VALID,0.105969,VALID,24.3158,VALID,68,VALID,0,
2009-05-04, 00:27:04,VALID,1009.75,VALID,0,VALID,79.2011,VALID,0.105969,VALID,24.3158,VALID,68,VALID,0,
2009-05-04, 00:28:04,VALID,1009.71,VALID,0,VALID,79.1935,VALID,0.105969,VALID,24.2944,VALID,68,VALID,0,
2009-05-04, 00:29:04,VALID,1009.71,VALID,0,VALID,79.2011,VALID,0.105969,VALID,24.3158,VALID,68,VALID,0,
2009-05-04, 00:30:04,VALID,1009.72,VALID,0,VALID,79.2087,VALID,0,VALID,24.2981,VALID,68,VALID,0,
2009-05-04, 00:31:04,VALID,1009.7,VALID,0,VALID,79.1858,VALID,0,VALID,24.2981,VALID,68,VALID,0,
2009-05-04, 00:32:04,VALID,1009.71,VALID,0,VALID,79.224,VALID,0,VALID,24.2786,VALID,68,VALID,0,
2009-05-04, 00:33:04,VALID,1009.67,VALID,0,VALID,79.2087,VALID,0,VALID,24.2591,VALID,68,VALID,0,
2009-05-04, 00:34:04,VALID,1009.62,VALID,0,VALID,79.224,VALID,0,VALID,24.2591,VALID,68,VALID,0,
2009-05-04, 00:35:04,VALID,1009.63,VALID,0,VALID,79.2163,VALID,0,VALID,24.2591,VALID,68,VALID,0,
2009-05-04, 00:36:04,VALID,1009.56,VALID,0,VALID,79.2087,VALID,0,VALID,24.2591,VALID,68,VALID,0,
2009-05-04, 00:37:04,VALID,1009.55,VALID,0,VALID,79.2163,VALID,0,VALID,24.2396,VALID,68,VALID,0,
2009-05-04, 00:38:04,VALID,1009.57,VALID,0,VALID,79.2163,VALID,0,VALID,24.2202,VALID,68,VALID,0,
2009-05-04, 00:39:04,VALID,1009.54,VALID,0,VALID,79.2316,VALID,0,VALID,24.1988,VALID,68,VALID,0,
2009-05-04, 00:40:04,VALID,1009.56,VALID,0,VALID,79.2316,VALID,0,VALID,24.2202,VALID,68,VALID,0,
2009-05-04, 00:41:04,VALID,1009.57,VALID,0,VALID,79.2392,VALID,0,VALID,24.2202,VALID,68,VALID,0,
2009-05-04, 00:42:04,VALID,1009.59,VALID,0,VALID,79.224,VALID,0,VALID,24.2396,VALID,68,VALID,0,
2009-05-04, 00:43:04,VALID,1009.57,VALID,0,VALID,79.2163,VALID,0,VALID,24.2591,VALID,68,VALID,0,
2009-05-04, 00:44:04,VALID,1009.56,VALID,0,VALID,79.2316,VALID,0,VALID,24.2981,VALID,68,VALID,0,
2009-05-04, 00:45:04,VALID,1009.54,VALID,0,VALID,79.2163,VALID,0,VALID,24.2981,VALID,68,VALID,0,
2009-05-04, 00:46:04,VALID,1009.53,VALID,0,VALID,79.2163,VALID,0,VALID,24.2981,VALID,68,VALID,0,
2009-05-04, 00:47:04,VALID,1009.51,VALID,0,VALID,79.2163,VALID,0,VALID,24.3176,VALID,68,VALID,0,
2009-05-04, 00:48:04,VALID,1009.48,VALID,0,VALID,79.2163,VALID,0,VALID,24.3176,VALID,68,VALID,0,
2009-05-04, 00:49:04,VALID,1009.49,VALID,0,VALID,79.2163,VALID,0,VALID,24.2981,VALID,68,VALID,0,
2009-05-04, 00:50:04,VALID,1009.5,VALID,0,VALID,79.2316,VALID,0,VALID,24.2786,VALID,68,VALID,0,
2009-05-04, 00:51:04,VALID,1009.53,VALID,0,VALID,79.2545,VALID,0,VALID,24.2591,VALID,68,VALID,0,
2009-05-04, 00:52:04,VALID,1009.52,VALID,0,VALID,79.2621,VALID,0,VALID,24.2396,VALID,68,VALID,0,
2009-05-04, 00:53:04,VALID,1009.49,VALID,0,VALID,79.2545,VALID,0,VALID,24.2396,VALID,68,VALID,0,
2009-05-04, 00:54:04,VALID,1009.48,VALID,0,VALID,79.2697,VALID,0,VALID,24.2396,VALID,68,VALID,0,
2009-05-04, 00:55:04,VALID,1009.45,VALID,0,VALID,79.2697,VALID,0,VALID,24.2202,VALID,68,VALID,0,
2009-05-04, 00:56:04,VALID,1009.42,VALID,0,VALID,79.2621,VALID,0,VALID,24.2202,VALID,68,VALID,0,
2009-05-04, 00:57:04,VALID,1009.41,VALID,0,VALID,79.2545,VALID,0,VALID,24.2202,VALID,68,VALID,0,
2009-05-04, 00:58:04,VALID,1009.41,VALID,0,VALID,79.2697,VALID,0,VALID,24.222,VALID,68,VALID,0,
2009-05-04, 00:59:04,VALID,1009.39,VALID,0,VALID,79.2926,VALID,0,VALID,24.2007,VALID,68,VALID,0,
2009-05-04, 01:00:04,VALID,1009.37,VALID,0,VALID,79.2773,VALID,0,VALID,24.1988,VALID,68,VALID,0,
2009-05-04, 01:01:04,VALID,1009.37,VALID,0,VALID,79.2773,VALID,0,VALID,24.1988,VALID,68,VALID,0,
2009-05-04, 01:02:04,VALID,1009.37,VALID,0,VALID,79.285,VALID,0,VALID,24.2183,VALID,68,VALID,0,
2009-05-04, 01:03:04,VALID,1009.37,VALID,0,VALID,79.2621,VALID,0.105969,VALID,24.2183,VALID,68,VALID,0,
2009-05-04, 01:04:04,VALID,1009.36,VALID,0,VALID,79.2926,VALID,0,VALID,24.2183,VALID,68,VALID,0,
2009-05-04, 01:05:04,VALID,1009.33,VALID,0,VALID,79.2697,VALID,0.105969,VALID,24.2378,VALID,68,VALID,0,
2009-05-04, 01:06:04,VALID,1009.35,VALID,0,VALID,79.2392,VALID,0.105969,VALID,24.2786,VALID,68,VALID,0,
2009-05-04, 01:07:04,VALID,1009.31,VALID,0,VALID,79.2545,VALID,0,VALID,24.2768,VALID,68,VALID,0,
2009-05-04, 01:08:04,VALID,1009.32,VALID,0,VALID,79.2468,VALID,0.105969,VALID,24.2963,VALID,68,VALID,0,
2009-05-04, 01:09:04,VALID,1009.32,VALID,0,VALID,79.2545,VALID,0.105969,VALID,24.3158,VALID,68,VALID,0,
2009-05-04, 01:10:04,VALID,1009.31,VALID,0,VALID,79.2468,VALID,0,VALID,24.3566,VALID,68,VALID,0,
2009-05-04, 01:11:04,VALID,1009.34,VALID,0,VALID,79.2697,VALID,0.105969,VALID,24.2981,VALID,68,VALID,0,
2009-05-04, 01:12:04,VALID,1009.33,VALID,0,VALID,79.2773,VALID,0.105969,VALID,24.2573,VALID,68,VALID,0,
2009-05-04, 01:13:04,VALID,1009.32,VALID,0,VALID,79.2773,VALID,0.105969,VALID,24.2183,VALID,68,VALID,0,
2009-05-04, 01:14:04,VALID,1009.3,VALID,0,VALID,79.3002,VALID,0.105969,VALID,24.1793,VALID,68,VALID,0,
2009-05-04, 01:15:04,VALID,1009.32,VALID,0,VALID,79.3002,VALID,0.105969,VALID,24.1599,VALID,68,VALID,0,
2009-05-04, 01:16:04,VALID,1009.27,VALID,0,VALID,79.3231,VALID,0.105969,VALID,24.1404,VALID,68,VALID,0,
2009-05-04, 01:17:04,VALID,1009.25,VALID,0,VALID,79.3231,VALID,0.105969,VALID,24.1014,VALID,68,VALID,0,
2009-05-04, 01:18:04,VALID,1009.21,VALID,0,VALID,79.3155,VALID,0,VALID,24.1014,VALID,68,VALID,0,
2009-05-04, 01:19:04,VALID,1009.16,VALID,0,VALID,79.3307,VALID,0.105969,VALID,24.1227,VALID,68,VALID,0,
2009-05-04, 01:20:04,VALID,1009.15,VALID,0,VALID,79.3002,VALID,0,VALID,24.1014,VALID,68,VALID,0,
2009-05-04, 01:21:04,VALID,1009.13,VALID,0,VALID,79.3155,VALID,0.105969,VALID,24.1014,VALID,68,VALID,0,
2009-05-04, 01:22:04,VALID,1009.12,VALID,0,VALID,79.3155,VALID,0.105969,VALID,24.1014,VALID,68,VALID,0,
2009-05-04, 01:23:04,VALID,1009.12,VALID,0,VALID,79.3002,VALID,0,VALID,24.0819,VALID,68,VALID,0,
2009-05-04, 01:24:04,VALID,1009.12,VALID,0,VALID,79.3307,VALID,0.105969,VALID,24.1014,VALID,68,VALID,0,
2009-05-04, 01:25:04,VALID,1009.13,VALID,0,VALID,79.3307,VALID,0.105969,VALID,24.0819,VALID,68,VALID,0,
2009-05-04, 01:26:04,VALID,1009.12,VALID,0,VALID,79.3307,VALID,0.105969,VALID,24.0819,VALID,68,VALID,0,
2009-05-04, 01:27:04,VALID,1009.13,VALID,0,VALID,79.3383,VALID,0,VALID,24.0837,VALID,68,VALID,0,
2009-05-04, 01:28:04,VALID,1009.09,VALID,0,VALID,79.3536,VALID,0.105969,VALID,24.0643,VALID,68,VALID,0,
2009-05-04, 01:29:04,VALID,1009.11,VALID,0,VALID,79.3383,VALID,0.105969,VALID,24.0235,VALID,68,VALID,0,
2009-05-04, 01:30:04,VALID,1009.11,VALID,0,VALID,79.3383,VALID,0,VALID,24.0235,VALID,68,VALID,0,
2009-05-04, 01:31:04,VALID,1009.1,VALID,0,VALID,79.3612,VALID,0,VALID,24.0235,VALID,68,VALID,0,
2009-05-04, 01:32:04,VALID,1009.1,VALID,0,VALID,79.3307,VALID,0,VALID,24.0235,VALID,68,VALID,0,
2009-05-04, 01:33:04,VALID,1009.06,VALID,0,VALID,79.3536,VALID,0,VALID,24.0235,VALID,68,VALID,0,
2009-05-04, 01:34:04,VALID,1009.05,VALID,0,VALID,79.3612,VALID,0,VALID,23.9845,VALID,68,VALID,0,
2009-05-04, 01:35:04,VALID,1009.06,VALID,0,VALID,79.3765,VALID,0,VALID,23.965,VALID,68,VALID,0,
2009-05-04, 01:36:04,VALID,1009.04,VALID,0,VALID,79.3917,VALID,0,VALID,23.965,VALID,68,VALID,0,
2009-05-04, 01:37:04,VALID,1009.01,VALID,0,VALID,79.3841,VALID,0,VALID,23.9455,VALID,68,VALID,0,
2009-05-04, 01:38:04,VALID,1009.03,VALID,0,VALID,79.3765,VALID,0,VALID,23.9455,VALID,68,VALID,0,
2009-05-04, 01:39:04,VALID,1009.03,VALID,0,VALID,79.3841,VALID,0.105969,VALID,23.926,VALID,68,VALID,0,
2009-05-04, 01:40:04,VALID,1009.03,VALID,0,VALID,79.407,VALID,0,VALID,23.9065,VALID,68,VALID,0,
2009-05-04, 01:41:04,VALID,1009.01,VALID,0,VALID,79.3917,VALID,0,VALID,23.926,VALID,68,VALID,0,
2009-05-04, 01:42:04,VALID,1008.98,VALID,0,VALID,79.3765,VALID,0.105969,VALID,23.965,VALID,68,VALID,0,
2009-05-04, 01:43:04,VALID,1008.97,VALID,0,VALID,79.3765,VALID,0,VALID,23.965,VALID,68,VALID,0,
2009-05-04, 01:44:04,VALID,1008.97,VALID,0,VALID,79.3993,VALID,0,VALID,23.9455,VALID,68,VALID,0,
2009-05-04, 01:45:04,VALID,1008.97,VALID,0,VALID,79.3917,VALID,0,VALID,23.9455,VALID,68,VALID,0,
2009-05-04, 01:46:04,VALID,1008.94,VALID,0,VALID,79.3993,VALID,0.105969,VALID,23.9455,VALID,60,VALID,0,
2009-05-04, 01:47:04,VALID,1008.95,VALID,0,VALID,79.3917,VALID,0,VALID,24.0058,VALID,46,VALID,0,
2009-05-04, 01:48:04,VALID,1008.92,VALID,0,VALID,79.3765,VALID,0,VALID,23.965,VALID,349,VALID,0,
2009-05-04, 01:49:04,VALID,1008.93,VALID,0,VALID,79.3765,VALID,0.105969,VALID,23.9845,VALID,335,VALID,0,
2009-05-04, 01:50:04,VALID,1008.89,VALID,0,VALID,79.3917,VALID,0,VALID,23.965,VALID,335,VALID,0,
2009-05-04, 01:51:04,VALID,1008.91,VALID,0,VALID,79.3993,VALID,0,VALID,23.965,VALID,335,VALID,0,
2009-05-04, 01:52:04,VALID,1008.89,VALID,0,VALID,79.407,VALID,0,VALID,23.9455,VALID,335,VALID,0,
2009-05-04, 01:53:04,VALID,1008.91,VALID,0,VALID,79.4146,VALID,0,VALID,23.926,VALID,335,VALID,0,
2009-05-04, 01:54:04,VALID,1008.89,VALID,0,VALID,79.4375,VALID,0.105969,VALID,23.8871,VALID,335,VALID,0,
2009-05-04, 01:55:04,VALID,1008.88,VALID,0,VALID,79.4222,VALID,0,VALID,23.8871,VALID,335,VALID,0,
2009-05-04, 01:56:04,VALID,1008.89,VALID,0,VALID,79.4298,VALID,0,VALID,23.8481,VALID,335,VALID,0,
2009-05-04, 01:57:04,VALID,1008.89,VALID,0,VALID,79.4375,VALID,0,VALID,23.8481,VALID,335,VALID,0,
2009-05-04, 01:58:04,VALID,1008.89,VALID,0,VALID,79.4298,VALID,0,VALID,23.8676,VALID,335,VALID,0,
2009-05-04, 01:59:04,VALID,1008.89,VALID,0,VALID,79.4375,VALID,0.105969,VALID,23.8481,VALID,335,VALID,0,
2009-05-04, 02:00:04,VALID,1008.85,VALID,0,VALID,79.4298,VALID,0,VALID,23.8871,VALID,335,VALID,0,
2009-05-04, 02:01:04,VALID,1008.84,VALID,0,VALID,79.4298,VALID,0,VALID,23.8871,VALID,335,VALID,0,
2009-05-04, 02:02:04,VALID,1008.86,VALID,0,VALID,79.4375,VALID,0.105969,VALID,23.9065,VALID,335,VALID,0,
2009-05-04, 02:03:04,VALID,1008.83,VALID,0,VALID,79.4222,VALID,0.105969,VALID,23.9473,VALID,335,VALID,0,
2009-05-04, 02:04:04,VALID,1008.79,VALID,0,VALID,79.407,VALID,0.105969,VALID,23.9047,VALID,335,VALID,0,
2009-05-04, 02:05:04,VALID,1008.78,VALID,0,VALID,79.4298,VALID,0,VALID,23.926,VALID,335,VALID,0,
2009-05-04, 02:06:04,VALID,1008.8,VALID,0,VALID,79.4375,VALID,0.105969,VALID,23.8871,VALID,335,VALID,0,
2009-05-04, 02:07:04,VALID,1008.77,VALID,0,VALID,79.468,VALID,0,VALID,23.8481,VALID,335,VALID,0,
2009-05-04, 02:08:04,VALID,1008.79,VALID,0,VALID,79.468,VALID,0,VALID,23.8286,VALID,335,VALID,0,
2009-05-04, 02:09:04,VALID,1008.77,VALID,0,VALID,79.4756,VALID,0,VALID,23.8091,VALID,335,VALID,0,
2009-05-04, 02:10:04,VALID,1008.78,VALID,0,VALID,79.4832,VALID,0.105969,VALID,23.7896,VALID,335,VALID,0,
2009-05-04, 02:11:04,VALID,1008.78,VALID,0,VALID,79.4985,VALID,0,VALID,23.7914,VALID,335,VALID,0,
2009-05-04, 02:12:04,VALID,1008.8,VALID,0,VALID,79.4756,VALID,0,VALID,23.7896,VALID,335,VALID,0,
2009-05-04, 02:13:04,VALID,1008.8,VALID,0,VALID,79.4832,VALID,0,VALID,23.7701,VALID,335,VALID,0,
2009-05-04, 02:14:04,VALID,1008.82,VALID,0,VALID,79.4832,VALID,0.105969,VALID,23.7701,VALID,335,VALID,0,
2009-05-04, 02:15:04,VALID,1008.84,VALID,0,VALID,79.4832,VALID,0,VALID,23.7507,VALID,335,VALID,0,
2009-05-04, 02:16:04,VALID,1008.84,VALID,0,VALID,79.4909,VALID,0,VALID,23.7914,VALID,335,VALID,0,
2009-05-04, 02:17:04,VALID,1008.81,VALID,0,VALID,79.4985,VALID,0.105969,VALID,23.7896,VALID,335,VALID,0,
2009-05-04, 02:18:04,VALID,1008.82,VALID,0,VALID,79.4832,VALID,0,VALID,23.7914,VALID,336,VALID,0,
2009-05-04, 02:19:04,VALID,1008.81,VALID,0,VALID,79.468,VALID,0,VALID,23.8109,VALID,347,VALID,0,
2009-05-04, 02:20:04,VALID,1008.8,VALID,0,VALID,79.4909,VALID,0,VALID,23.7896,VALID,349,VALID,0,
2009-05-04, 02:21:04,VALID,1008.79,VALID,0,VALID,79.4985,VALID,0.105969,VALID,23.8091,VALID,349,VALID,0,
2009-05-04, 02:22:04,VALID,1008.79,VALID,0,VALID,79.468,VALID,0,VALID,23.7701,VALID,357,VALID,0,
2009-05-04, 02:23:04,VALID,1008.8,VALID,0,VALID,79.4985,VALID,0,VALID,23.7914,VALID,82,VALID,0,
2009-05-04, 02:24:04,VALID,1008.79,VALID,0,VALID,79.4909,VALID,0.105969,VALID,23.7701,VALID,82,VALID,0.428125,
2009-05-04, 02:25:04,VALID,1008.78,VALID,0,VALID,79.4985,VALID,0.105969,VALID,23.7701,VALID,82,VALID,0.496484,
2009-05-04, 02:26:04,VALID,1008.78,VALID,0,VALID,79.4985,VALID,0.105969,VALID,23.7507,VALID,82,VALID,0.354688,
2009-05-04, 02:27:04,VALID,1008.77,VALID,0,VALID,79.5061,VALID,0,VALID,23.7117,VALID,82,VALID,0.391406,
2009-05-04, 02:28:04,VALID,1008.76,VALID,0,VALID,79.5137,VALID,0,VALID,23.7117,VALID,82,VALID,0.313281,
2009-05-04, 02:29:04,VALID,1008.75,VALID,0,VALID,79.5061,VALID,0.105969,VALID,23.7312,VALID,81,VALID,0.164844,
2009-05-04, 02:30:04,VALID,1008.73,VALID,0,VALID,79.5214,VALID,0,VALID,23.7117,VALID,81,VALID,0.271875,
2009-05-04, 02:31:04,VALID,1008.72,VALID,0,VALID,79.5061,VALID,0,VALID,23.733,VALID,81,VALID,0,
2009-05-04, 02:32:04,VALID,1008.75,VALID,0,VALID,79.5137,VALID,0,VALID,23.7117,VALID,81,VALID,0,
2009-05-04, 02:33:04,VALID,1008.72,VALID,0,VALID,79.5061,VALID,0,VALID,23.6922,VALID,81,VALID,0,
2009-05-04, 02:34:04,VALID,1008.7,VALID,0,VALID,79.5214,VALID,0,VALID,23.6922,VALID,81,VALID,0,
2009-05-04, 02:35:04,VALID,1008.69,VALID,0,VALID,79.5214,VALID,0,VALID,23.6922,VALID,81,VALID,0.146094,
2009-05-04, 02:36:04,VALID,1008.71,VALID,0,VALID,79.529,VALID,0.105969,VALID,23.6922,VALID,81,VALID,0.20625,
2009-05-04, 02:37:04,VALID,1008.72,VALID,0,VALID,79.529,VALID,0,VALID,23.6727,VALID,81,VALID,0.235156,
2009-05-04, 02:38:04,VALID,1008.71,VALID,0,VALID,79.529,VALID,0.105969,VALID,23.6727,VALID,81,VALID,0.255078,
2009-05-04, 02:39:04,VALID,1008.73,VALID,0,VALID,79.529,VALID,0.105969,VALID,23.6727,VALID,81,VALID,0.335547,
2009-05-04, 02:40:04,VALID,1008.75,VALID,0,VALID,79.5519,VALID,0,VALID,23.6727,VALID,81,VALID,0.208984,
2009-05-04, 02:41:04,VALID,1008.76,VALID,0,VALID,79.529,VALID,0,VALID,23.6727,VALID,81,VALID,0.228516,
2009-05-04, 02:42:04,VALID,1008.72,VALID,0,VALID,79.5366,VALID,0,VALID,23.6532,VALID,81,VALID,0,
2009-05-04, 02:43:04,VALID,1008.74,VALID,0,VALID,79.5214,VALID,0,VALID,23.6532,VALID,81,VALID,0,
2009-05-04, 02:44:04,VALID,1008.71,VALID,0,VALID,79.529,VALID,0,VALID,23.6532,VALID,81,VALID,0,
2009-05-04, 02:45:04,VALID,1008.71,VALID,0,VALID,79.5519,VALID,0,VALID,23.694,VALID,81,VALID,0,
2009-05-04, 02:46:04,VALID,1008.73,VALID,0,VALID,79.5519,VALID,0.105969,VALID,23.6727,VALID,81,VALID,0.040625,
2009-05-04, 02:47:04,VALID,1008.68,VALID,0,VALID,79.5442,VALID,0.105969,VALID,23.6532,VALID,70,VALID,0,
2009-05-04, 02:48:04,VALID,1008.66,VALID,0,VALID,79.5595,VALID,0.105969,VALID,23.6532,VALID,70,VALID,0,
2009-05-04, 02:49:04,VALID,1008.67,VALID,0,VALID,79.5442,VALID,0,VALID,23.6532,VALID,70,VALID,0,
2009-05-04, 02:50:04,VALID,1008.66,VALID,0,VALID,79.5442,VALID,0,VALID,23.6532,VALID,70,VALID,0,
2009-05-04, 02:51:04,VALID,1008.67,VALID,0,VALID,79.5442,VALID,0,VALID,23.6338,VALID,70,VALID,0,
2009-05-04, 02:52:04,VALID,1008.65,VALID,0,VALID,79.5519,VALID,0.105969,VALID,23.6532,VALID,70,VALID,0,
2009-05-04, 02:53:04,VALID,1008.65,VALID,0,VALID,79.529,VALID,0,VALID,23.6532,VALID,70,VALID,0,
2009-05-04, 02:54:04,VALID,1008.6,VALID,0,VALID,79.5442,VALID,0.105969,VALID,23.6727,VALID,70,VALID,0,
2009-05-04, 02:55:04,VALID,1008.6,VALID,0,VALID,79.5366,VALID,0,VALID,23.6745,VALID,70,VALID,0,
2009-05-04, 02:56:04,VALID,1008.56,VALID,0,VALID,79.5442,VALID,0,VALID,23.655,VALID,70,VALID,0,
2009-05-04, 02:57:04,VALID,1008.55,VALID,0,VALID,79.5671,VALID,0,VALID,23.6143,VALID,70,VALID,0,
2009-05-04, 02:58:04,VALID,1008.54,VALID,0,VALID,79.5442,VALID,0,VALID,23.6143,VALID,70,VALID,0,
2009-05-04, 02:59:04,VALID,1008.5,VALID,0,VALID,79.5747,VALID,0.105969,VALID,23.5948,VALID,70,VALID,0,
2009-05-04, 03:00:04,VALID,1008.52,VALID,0,VALID,79.5671,VALID,0,VALID,23.5948,VALID,70,VALID,0,
2009-05-04, 03:01:04,VALID,1008.51,VALID,0,VALID,79.5976,VALID,0,VALID,23.5753,VALID,70,VALID,0,
2009-05-04, 03:02:04,VALID,1008.53,VALID,0,VALID,79.5824,VALID,0,VALID,23.5753,VALID,70,VALID,0,
2009-05-04, 03:03:04,VALID,1008.52,VALID,0,VALID,79.5747,VALID,0,VALID,23.5753,VALID,70,VALID,0,
2009-05-04, 03:04:04,VALID,1008.5,VALID,0,VALID,79.59,VALID,0,VALID,23.5363,VALID,70,VALID,0,
2009-05-04, 03:05:04,VALID,1008.53,VALID,0,VALID,79.59,VALID,0.105969,VALID,23.5363,VALID,70,VALID,0,
2009-05-04, 03:06:04,VALID,1008.5,VALID,0,VALID,79.5976,VALID,0,VALID,23.5363,VALID,70,VALID,0,
2009-05-04, 03:07:04,VALID,1008.52,VALID,0,VALID,79.59,VALID,0,VALID,23.5771,VALID,70,VALID,0,
2009-05-04, 03:08:04,VALID,1008.51,VALID,0,VALID,79.5747,VALID,0,VALID,23.5346,VALID,70,VALID,0,
2009-05-04, 03:09:04,VALID,1008.53,VALID,0,VALID,79.5671,VALID,0.105969,VALID,23.5753,VALID,70,VALID,0,
2009-05-04, 03:10:04,VALID,1008.53,VALID,0,VALID,79.5747,VALID,0.105969,VALID,23.5948,VALID,70,VALID,0,
2009-05-04, 03:11:04,VALID,1008.55,VALID,0,VALID,79.5595,VALID,0.105969,VALID,23.6143,VALID,70,VALID,0,
2009-05-04, 03:12:04,VALID,1008.58,VALID,0,VALID,79.5519,VALID,0,VALID,23.6143,VALID,70,VALID,0,
2009-05-04, 03:13:04,VALID,1008.58,VALID,0,VALID,79.5671,VALID,0,VALID,23.6161,VALID,70,VALID,0,
2009-05-04, 03:14:04,VALID,1008.61,VALID,0,VALID,79.5747,VALID,0,VALID,23.5753,VALID,70,VALID,0,
2009-05-04, 03:15:04,VALID,1008.62,VALID,0,VALID,79.5747,VALID,0,VALID,23.5966,VALID,70,VALID,0,
2009-05-04, 03:16:04,VALID,1008.63,VALID,0,VALID,79.5824,VALID,0,VALID,23.5771,VALID,70,VALID,0,
2009-05-04, 03:17:04,VALID,1008.61,VALID,0,VALID,79.59,VALID,0,VALID,23.5576,VALID,70,VALID,0,
2009-05-04, 03:18:04,VALID,1008.61,VALID,0,VALID,79.5976,VALID,0,VALID,23.5576,VALID,70,VALID,0,
2009-05-04, 03:19:04,VALID,1008.59,VALID,0,VALID,79.59,VALID,0,VALID,23.5576,VALID,70,VALID,0.336328,
2009-05-04, 03:20:04,VALID,1008.57,VALID,0,VALID,79.5976,VALID,0,VALID,23.5363,VALID,70,VALID,0.419531,
2009-05-04, 03:21:04,VALID,1008.59,VALID,0,VALID,79.5976,VALID,0.105969,VALID,23.5363,VALID,70,VALID,0.408984,
2009-05-04, 03:22:04,VALID,1008.6,VALID,0,VALID,79.5976,VALID,0,VALID,23.5576,VALID,70,VALID,0.310937,
2009-05-04, 03:23:04,VALID,1008.59,VALID,0,VALID,79.5976,VALID,0,VALID,23.5363,VALID,70,VALID,0,
2009-05-04, 03:24:04,VALID,1008.62,VALID,0,VALID,79.5747,VALID,0,VALID,23.5363,VALID,70,VALID,0,
2009-05-04, 03:25:04,VALID,1008.62,VALID,0,VALID,79.59,VALID,0,VALID,23.5771,VALID,70,VALID,0,
2009-05-04, 03:26:04,VALID,1008.64,VALID,0,VALID,79.5976,VALID,0,VALID,23.5771,VALID,70,VALID,0,
2009-05-04, 03:27:04,VALID,1008.64,VALID,0,VALID,79.5976,VALID,0,VALID,23.5558,VALID,70,VALID,0,
2009-05-04, 03:28:04,VALID,1008.67,VALID,0,VALID,79.6129,VALID,0,VALID,23.5558,VALID,70,VALID,0,
2009-05-04, 03:29:04,VALID,1008.68,VALID,0,VALID,79.5976,VALID,0,VALID,23.5753,VALID,70,VALID,0,
2009-05-04, 03:30:04,VALID,1008.7,VALID,0,VALID,79.5976,VALID,0,VALID,23.5771,VALID,70,VALID,0,
2009-05-04, 03:31:04,VALID,1008.67,VALID,0,VALID,79.59,VALID,0,VALID,23.5753,VALID,70,VALID,0,
2009-05-04, 03:32:04,VALID,1008.68,VALID,0,VALID,79.59,VALID,0.105969,VALID,23.5753,VALID,70,VALID,0,
2009-05-04, 03:33:04,VALID,1008.69,VALID,0,VALID,79.6129,VALID,0,VALID,23.5966,VALID,70,VALID,0,
2009-05-04, 03:34:04,VALID,1008.67,VALID,0,VALID,79.6052,VALID,0.105969,VALID,23.5558,VALID,70,VALID,0,
2009-05-04, 03:35:04,VALID,1008.64,VALID,0,VALID,79.5976,VALID,0.105969,VALID,23.5753,VALID,70,VALID,0,
2009-05-04, 03:36:04,VALID,1008.63,VALID,0,VALID,79.59,VALID,0.105969,VALID,23.5753,VALID,70,VALID,0,
2009-05-04, 03:37:04,VALID,1008.62,VALID,0,VALID,79.5976,VALID,0,VALID,23.5753,VALID,70,VALID,0,
2009-05-04, 03:38:04,VALID,1008.61,VALID,0,VALID,79.6052,VALID,0.105969,VALID,23.5753,VALID,70,VALID,0,
2009-05-04, 03:39:04,VALID,1008.6,VALID,0,VALID,79.6129,VALID,0,VALID,23.5771,VALID,70,VALID,0,
2009-05-04, 03:40:04,VALID,1008.61,VALID,0,VALID,79.5976,VALID,0.105969,VALID,23.5753,VALID,70,VALID,0,
2009-05-04, 03:41:04,VALID,1008.58,VALID,0,VALID,79.5976,VALID,0.105969,VALID,23.5771,VALID,70,VALID,0,
2009-05-04, 03:42:04,VALID,1008.57,VALID,0,VALID,79.6129,VALID,0,VALID,23.5753,VALID,70,VALID,0,
2009-05-04, 03:43:04,VALID,1008.57,VALID,0,VALID,79.59,VALID,0,VALID,23.5558,VALID,70,VALID,0,
2009-05-04, 03:44:04,VALID,1008.49,VALID,0,VALID,79.6052,VALID,0.105969,VALID,23.5558,VALID,70,VALID,0,
2009-05-04, 03:45:04,VALID,1008.48,VALID,0,VALID,79.6052,VALID,0,VALID,23.5576,VALID,70,VALID,0,
2009-05-04, 03:46:04,VALID,1008.44,VALID,0,VALID,79.6052,VALID,0,VALID,23.5594,VALID,70,VALID,0,
2009-05-04, 03:47:04,VALID,1008.46,VALID,0,VALID,79.6129,VALID,0,VALID,23.5399,VALID,70,VALID,0,
2009-05-04, 03:48:04,VALID,1008.48,VALID,0,VALID,79.6281,VALID,0,VALID,23.4992,VALID,70,VALID,0,
2009-05-04, 03:49:04,VALID,1008.45,VALID,0,VALID,79.6129,VALID,0,VALID,23.5186,VALID,70,VALID,0,
2009-05-04, 03:50:04,VALID,1008.5,VALID,0,VALID,79.6281,VALID,0,VALID,23.4992,VALID,70,VALID,0,
2009-05-04, 03:51:04,VALID,1008.52,VALID,0,VALID,79.6129,VALID,0,VALID,23.4992,VALID,70,VALID,0,
2009-05-04, 03:52:04,VALID,1008.49,VALID,0,VALID,79.6129,VALID,0,VALID,23.5204,VALID,70,VALID,0,
2009-05-04, 03:53:04,VALID,1008.48,VALID,0,VALID,79.6205,VALID,0,VALID,23.4797,VALID,70,VALID,0,
2009-05-04, 03:54:04,VALID,1008.44,VALID,0,VALID,79.6281,VALID,0,VALID,23.4602,VALID,70,VALID,0,
2009-05-04, 03:55:04,VALID,1008.43,VALID,0,VALID,79.6434,VALID,0,VALID,23.4602,VALID,70,VALID,0,